カタログに戻る

STARLINK-11374

運用中通信VLEO
NORAD 61581·PAYLOAD·🇺🇸 United States

打ち上げ Oct 18, 2024 から Cape Canaveral Space Force Station

Loading…

次のパス (今後24時間)

TLE

最新Source: CelesTrak SupGP

元期: Sep 15, 2026, 03:43 UTC

1 61581C 24187H   26258.15534722 -.00069684  00000+0 -57363-3 0  2584
2 61581  53.1564  82.6171 0001027  80.6339 261.0952 15.69760218    12

AllMySatでSTARLINK-11374をリアルタイム追跡

Download on the App Store